This is the latest recevied weather packets stored in our database for station/object W0DP. If no packets are shown the sender has not sent any weather packets the latest 10 day(s).
| Time | Temp. | Humidity | Pressure | Rain* | Wind** | Luminosity | Snow |
|---|---|---|---|---|---|---|---|
| 1777878016 | 10.56° C | 66% | 1006.5 hPa | 0 mm | - | - | - |
| 1777877436 | 10° C | 67% | 1006.4 hPa | 0 mm | - | - | - |
| 1777873816 | 11.11° C | 65% | 1007.2 hPa | 0 mm | - | - | - |
| 1777872615 | 11.67° C | 62% | 1007.4 hPa | 0 mm | - | - | - |
| 1777872016 | 11.67° C | 63% | 1007.4 hPa | 0 mm | - | - | - |
| 1777870216 | 12.22° C | 61% | 1007.7 hPa | 0 mm | - | - | - |
| 1777859437 | 17.78° C | 42% | 1008.7 hPa | 0 mm | - | - | - |
| 1777855817 | 21.11° C | 32% | 1008.4 hPa | 0 mm | - | - | - |
| 1777852217 | 23.89° C | 28% | 1008.7 hPa | 0 mm | - | - | - |
| 1777851617 | 24.44° C | 29% | 1008.7 hPa | 0 mm | - | - | - |
| 1777850417 | 24.44° C | 25% | 1008.9 hPa | 0 mm | - | - | - |
| 1777849817 | 25° C | 26% | 1008.8 hPa | 0 mm | - | - | - |
| 1777846817 | 25° C | 24% | 1008.9 hPa | 0 mm | - | - | - |
| 1777842016 | 25° C | 25% | 1009.2 hPa | 0 mm | - | - | - |
| 1777833016 | 24.44° C | 31% | 1009.9 hPa | 0 mm | - | - | - |
| 1777832416 | 24.44° C | 31% | 1009.9 hPa | 0 mm | - | - | - |
| 1777831836 | 24.44° C | 33% | 1009.8 hPa | 0 mm | - | - | - |
| 1777828816 | 22.78° C | 36% | 1010 hPa | 0 mm | - | - | - |
| 1777828216 | 22.22° C | 37% | 1010 hPa | 0 mm | - | - | - |
| 1777827036 | 23.33° C | 38% | 1010 hPa | 0 mm | - | - | - |
| 1777824015 | 21.11° C | 40% | 1010.1 hPa | 0 mm | - | - | - |
| 1777823415 | 21.11° C | 42% | 1010.1 hPa | 0 mm | - | - | - |
| 1777822835 | 20° C | 46% | 1010.2 hPa | 0 mm | - | - | - |
| 1777822235 | 20° C | 44% | 1010.1 hPa | 0 mm | - | - | - |
| 1777818617 | 17.78° C | 50% | 1010.1 hPa | 0 mm | - | - | - |
* Rain latest hour (hover to see other rain measurements)
** Current wind speed in m/s (hover to see current wind gust speed)